Tracking 32963 objects as of 21-Jan-2026
HD Live streaming from Space Station
objects crossing your sky now

STARLINK-34598

Track STARLINK-34598 now!
10-day predictions
STARLINK-34598 is classified as:


NORAD ID: 64759
Int'l Code: 2025-147E
Perigee: 481.0 km
Apogee: 484.0 km
Inclination: 53.2 °
Period: 94.1 minutes
Semi major axis: 6853 km
RCS: Unknown
Launch date: July 8, 2025
Source: United States (US)
Launch site: AIR FORCE EASTERN TEST RANGE (AFETR)
Your satellite tracking list
Your tracking list is empty




NASA's NSSDC Master Catalog

Two Line Element Set (TLE):
1 64759U 25147E   26021.46281657  .00018458  00000-0  63481-3 0  9991
2 64759  53.1597 101.9344 0002191  42.6121 317.5049 15.30146880 31474
Source of the keplerian elements: AFSPC